This is the latest recevied weather packets stored in our database for station/object W4ZHA. If no packets are shown the sender has not sent any weather packets the latest 10 day(s).
| Time | Temp. | Humidity | Pressure | Rain* | Wind** | Luminosity | Snow |
|---|---|---|---|---|---|---|---|
| 1788134287 | 29.44° C | 62% | 1019 hPa | 0 mm | - | 6 W/m² | - |
| 1788133982 | 29.44° C | 61% | 1019 hPa | 0 mm | - | 11 W/m² | - |
| 1788133677 | 30° C | 61% | 1019 hPa | 0 mm | - | 13 W/m² | - |
| 1788133373 | 30° C | 58% | 1019 hPa | 0 mm | - | 19 W/m² | - |
| 1788133068 | 30.56° C | 57% | 1019.3 hPa | 0 mm | - | 24 W/m² | - |
| 1788132764 | 30.56° C | 57% | 1019 hPa | 0 mm | - | 27 W/m² | - |
| 1788132459 | 30.56° C | 57% | 1019 hPa | 0 mm | - | 30 W/m² | - |
| 1788132155 | 30.56° C | 57% | 1019 hPa | 0 mm | - | 32 W/m² | - |
| 1788131851 | 30.56° C | 56% | 1019 hPa | 0 mm | - | 38 W/m² | - |
| 1788131551 | 31.11° C | 56% | 1019 hPa | 0 mm | - | 40 W/m² | - |
| 1788131246 | 31.67° C | 55% | 1019 hPa | 0 mm | - | 44 W/m² | - |
| 1788130941 | 31.67° C | 54% | 1019 hPa | 0 mm | - | 48 W/m² | - |
| 1788130640 | 31.67° C | 54% | 1019 hPa | 0 mm | - | 86 W/m² | - |
| 1788130335 | 31.67° C | 54% | 1019 hPa | 0 mm | - | 223 W/m² | - |
| 1788130034 | 31.67° C | 54% | 1019 hPa | 0 mm | - | 236 W/m² | - |
| 1788129730 | 31.67° C | 54% | 1019 hPa | 0 mm | - | 244 W/m² | - |
| 1788129427 | 31.67° C | 54% | 1019 hPa | 0 mm | - | 262 W/m² | - |
| 1788129122 | 32.22° C | 53% | 1019 hPa | 0 mm | - | 279 W/m² | - |
| 1788128816 | 32.22° C | 53% | 1018.6 hPa | 0 mm | - | 288 W/m² | - |
| 1788128511 | 32.22° C | 52% | 1019 hPa | 0 mm | - | 297 W/m² | - |
| 1788128202 | 32.22° C | 48% | 1018.6 hPa | 0 mm | - | 308 W/m² | - |
| 1788127898 | 32.78° C | 46% | 1019 hPa | 0 mm | - | 316 W/m² | - |
| 1788127593 | 32.22° C | 48% | 1019 hPa | 0 mm | - | 326 W/m² | - |
| 1788127292 | 32.22° C | 51% | 1019 hPa | 0 mm | - | 335 W/m² | - |
| 1788126991 | 32.78° C | 51% | 1019 hPa | 0 mm | - | 344 W/m² | - |
* Rain latest hour (hover to see other rain measurements)
** Current wind speed in m/s (hover to see current wind gust speed)